Home   Weather   Cochabamba   Past weeks

Flag for Bolivia Past Weather in Cochabamba, Bolivia — Yesterday and Last 2 Weeks

61 °F

Partly sunny.

Feels Like: 61 °F
Forecast: 60 / 75 °F
Wind: 5 mph from West

Location: Cochabamba Airport

Current Time: Oct 26, 2016 at 9:35:23 AM

Latest Report: Oct 26, 2016 at 9:00 AM

Visibility: N/A

Pressure: 30.27 "Hg (22.30 "Hg at 2584m altitude)

Humidity: 68%

Dew Point: 50 °F

Location of CochabambaLocation

Past Weather in Cochabamba — Graph


Cochabamba Temperature Yesterday

Maximum temperature yesterday: 84 °F (at 1:00 PM)
Minimum temperature yesterday: 57 °F (at 6:00 AM)
Average temperature yesterday: 70 °F

High & Low Weather Summary for the Past Weeks

High86 °F (Oct 12, 2:00 PM)94% (Oct 22, 4:00 AM)30.33 "Hg (Oct 22, 4:00 AM)
Low50 °F (Oct 13, 6:00 AM)6% (Oct 13, 12:00 PM)29.95 "Hg (Oct 25, 5:00 PM)
Average68 °F43%30.19 "Hg
* Reported Oct 11 8:00 AM — Oct 26 8:00 AM, Cochabamba, Weather by CustomWeather, © 2016

Note: Actual official high and low records may vary slightly from our data, if they occured in-between our weather recording intervals... More about our weather records


Cochabamba Weather History for the Previous 24 Hours

Scroll right to see more
Time TempWeatherWind HumidityBarometerVisibility
8:00 AM
Wed, Oct 26
59 °FPartly sunny.5 mph77%30.24 "HgN/A
7:00 AM59 °FBroken clouds.No wind72%30.24 "HgN/A
6:00 AM57 °FMore clouds than sun.5 mph82%30.21 "HgN/A
5:00 AM57 °FLight rain. Mostly cloudy.7 mph77%30.18 "Hg5 mi
4:00 AM61 °FMostly cloudy.13 mph63%30.15 "HgN/A
3:00 AM61 °FPassing clouds.5 mph72%30.15 "HgN/A
2:00 AM61 °FMostly cloudy.5 mph68%30.12 "HgN/A
1:00 AM63 °FMostly cloudy.6 mph59%30.18 "HgN/A
12:00 AM63 °FMostly cloudy.5 mph64%30.18 "HgN/A
11:00 PM
Tue, Oct 25
63 °FMostly cloudy.14 mph64%30.18 "HgN/A
10:00 PM64 °FThundershowers. Partly cloudy.13 mph64%30.18 "HgN/A
9:00 PM68 °FLight rain. Passing clouds.10 mph46%30.12 "Hg6 mi
8:00 PM72 °FPartly cloudy.7 mph38%30.07 "HgN/A
7:00 PM75 °FPartly cloudy.9 mph29%30.01 "HgN/A
6:00 PM79 °FBroken clouds.12 mph24%29.98 "HgN/A
5:00 PM82 °FPartly sunny.9 mph19%29.95 "HgN/A
4:00 PM82 °FPartly sunny.14 mph20%29.98 "HgN/A
3:00 PM84 °FPartly sunny.9 mph15%30.01 "HgN/A
2:00 PM84 °FPartly sunny.6 mph18%30.04 "HgN/A
1:00 PM84 °FPartly sunny.7 mph16%30.09 "HgN/A
12:00 PM79 °FPartly sunny.7 mph26%30.12 "HgN/A
11:00 AM79 °FPartly sunny.5 mph28%30.15 "HgN/A
10:00 AM75 °FPartly sunny.No wind31%30.18 "HgN/A
9:00 AM70 °FScattered clouds.No wind43%30.21 "HgN/A
Weather by CustomWeather, © 2016

See weather overviewHow to use our weather pages